Location: Caltech
(34.1382°N, 118.1253°W)
Time: 06:50:52
(UTC-07:00)

Cosmos 2219 Rocket - Visible Passes

Search period start: 27 May 2015 00:00
Search period end: 06 June 2015 00:00
Orbit: 827 x 847 km, 71.0° (Epoch: 26 May)

Date Brightness Start Highest point End Pass type
(mag) Time Alt. Az. Time Alt. Az. Time Alt. Az.
27 May 4.1 21:12:58 11° E 21:12:58 11° E 21:13:55 10° ENE visible
27 May 2.3 22:54:37 65° WSW 22:55:15 72° WNW 23:00:53 10° NNE visible
28 May 4.1 20:55:51 10° E 20:55:51 10° E 20:56:46 10° E visible
28 May 2.2 22:37:28 51° SW 22:38:56 78° WNW 22:44:35 10° NNE visible
29 May 2.1 22:20:03 34° SSW 22:22:38 85° WNW 22:28:18 10° NNE visible
30 May 5.0 00:06:17 10° WNW 00:07:35 11° NW 00:08:32 10° NW visible
30 May 2.1 22:02:12 19° SSW 22:06:20 89° ESE 22:12:00 10° NNE visible
30 May 5.0 23:49:10 10° WNW 23:51:12 12° NW 23:52:54 10° NNW visible
31 May 2.1 21:44:27 10° SSW 21:50:02 82° ESE 21:55:41 10° NNE visible
31 May 4.9 23:32:18 10° W 23:34:49 13° NW 23:37:03 10° NNW visible
01 Jun 2.1 21:28:10 10° SSW 21:33:44 75° ESE 21:39:22 10° NNE visible
01 Jun 4.9 23:15:31 10° W 23:18:26 14° NW 23:21:04 10° NNW visible
02 Jun 2.1 21:11:54 10° S 21:17:26 69° ESE 21:23:03 10° NNE visible
02 Jun 4.9 22:58:49 10° W 23:02:03 15° NW 23:05:03 10° NNW visible
03 Jun 2.2 20:55:39 10° S 21:01:08 63° ESE 21:06:43 10° NNE visible
03 Jun 4.9 22:42:09 10° W 22:45:41 16° NW 22:48:59 10° NNW visible
04 Jun 2.2 20:39:23 10° S 20:44:51 58° ESE 20:50:23 10° NNE visible
04 Jun 4.9 22:25:32 10° W 22:29:18 17° NW 22:32:52 10° NNW visible
05 Jun 2.3 20:23:09 10° S 20:28:34 53° ESE 20:34:02 10° NNE visible
05 Jun 4.9 22:08:57 10° WSW 22:12:56 19° NW 22:16:45 10° NNW visible
